Location: *
(55.6049°S, 142.1985°W)
Time: 01:26:53
(UTC+00:00)

USA 306 - Pass Details

Date: 12 May 2021
Orbit: 565 x 575 km, 54.0° (Epoch: 11 May)

Event Time Altitude Azimuth Distance (km) Brightness Sun altitude
Exits shadow 15:01:34 33° 305° (NW) 1,001 3.7 -18.3°
Maximum altitude 15:03:22 63° 13° (NNE) 658 3.2 -18.1°
Drops below altitude 10° 15:07:40 10° 94° (E) 1,907 6.8 -17.5°
Sets 15:09:57 0° 96° (E) 2,806 8.0 -17.1°
